Flag for U.S.A. Weather past 2 weeks in Inverness, Florida, U.S.A.

70 °F


Feels Like: 70 °F
Forecast: 65 / 82 °F
Wind: No wind

Location: The Villages

Current Time: Dec 1, 2015 at 1:08:05 AM

Latest Report: Dec 1, 2015 at 12:15 AM

Visibility: 10 mi

Pressure: 29.97 "Hg

Humidity: 94%

Dew point: 68 °F

Location of InvernessLocation

Historic Weather in Inverness — Graph


Inverness temperature yesterday

Maximum temperature yesterday: 79 °F (at 12:15 PM)
Minimum temperature yesterday: 61 °F (at 5:55 AM)
Average temperature yesterday: 70 °F

Past Weeks' High & Low Weather Summary

High86 °F (Nov 17, 1:55 PM)100% (Nov 16, 2:55 AM)30.33 "Hg (Nov 16, 2:55 AM)
Low43 °F (Nov 23, 5:55 AM)37% (Nov 23, 2:55 PM)29.74 "Hg (Nov 22, 2:55 AM)
Average69 °F87%30.04 "Hg
* Reported Nov 15 11:15 PM — Nov 30 11:15 PM, Inverness, Weather by CustomWeather, © 2015

Note: Actual official high and low records may vary slightly from our data, if they occured in-between our weather recording intervals... More about our weather records


Inverness weather history for previous 24 hours

Time TempWeatherWind HumidityBarometerVisibility
11:15 PM
Mon, Nov 30
70 °FMild.3 mph94%29.98 "Hg10 mi
10:55 PM70 °FMild.5 mph94%29.98 "Hg10 mi
10:15 PM70 °FMild.No wind88%29.98 "Hg10 mi
9:55 PM72 °FMild.No wind83%29.98 "Hg10 mi
9:35 PM72 °FMild.No wind83%29.99 "Hg10 mi
9:15 PM72 °FMild.No wind83%29.98 "Hg10 mi
7:55 PM73 °FMild.5 mph78%29.98 "Hg10 mi
6:55 PM73 °FMild.6 mph78%29.98 "Hg10 mi
6:35 PM73 °FMild.7 mph78%29.97 "Hg10 mi
6:15 PM73 °FMild.6 mph78%29.96 "Hg10 mi
5:35 PM75 °FMild.5 mph74%29.96 "Hg10 mi
5:15 PM75 °FMild.7 mph74%29.95 "Hg10 mi
4:55 PM77 °FWarm.5 mph69%29.95 "Hg10 mi
4:15 PM77 °FWarm.6 mph69%29.94 "Hg10 mi
3:55 PM77 °FWarm.6 mph69%29.94 "Hg10 mi
3:15 PM79 °FWarm.No wind65%29.94 "Hg10 mi
2:55 PM79 °FWarm.7 mph65%29.95 "Hg10 mi
2:35 PM79 °FWarm.3 mph70%29.95 "Hg10 mi
2:15 PM79 °FWarm.5 mph70%29.95 "HgN/A
1:55 PM79 °FWarm.6 mph70%29.95 "Hg10 mi
1:35 PM79 °FWarm.7 mph70%29.95 "Hg9 mi
1:15 PM79 °FWarm.5 mph70%29.96 "Hg10 mi
12:55 PM79 °FWarm.7 mph70%29.96 "Hg10 mi
12:35 PM79 °FWarm.7 mph70%29.99 "Hg8 mi
12:15 PM79 °FWarm.6 mph70%30.00 "Hg8 mi
11:55 AM77 °FHaze.8 mph74%30.01 "Hg6 mi
11:35 AM77 °FWarm.7 mph74%30.01 "Hg10 mi
11:15 AM77 °FWarm.9 mph74%30.01 "Hg10 mi
10:55 AM75 °FMild.9 mph78%30.02 "Hg10 mi
10:35 AM75 °FMild.8 mph78%30.03 "Hg10 mi
10:15 AM73 °FMild.7 mph83%30.04 "Hg10 mi
9:55 AM72 °FMild.9 mph88%30.04 "Hg10 mi
9:35 AM70 °FMild.8 mph94%30.03 "Hg10 mi
9:15 AM70 °FMild.7 mph88%30.03 "Hg10 mi
8:55 AM68 °FMild.No wind94%30.02 "Hg10 mi
8:35 AM66 °FMild.7 mph100%30.02 "Hg10 mi
8:15 AM64 °FMild.3 mph100%30.01 "Hg10 mi
7:55 AM63 °FMild.No wind100%30.01 "Hg10 mi
7:35 AM61 °FCool.No wind100%30.00 "Hg10 mi
7:15 AM61 °FCool.No wind100%30.00 "Hg9 mi
6:55 AM61 °FFog.No wind100%29.99 "Hg0 mi
6:35 AM61 °FFog.No wind100%29.99 "Hg1 mi
6:15 AM61 °FFog.No wind100%30.00 "Hg5 mi
5:55 AM61 °FFog.No wind100%29.99 "Hg1 mi
5:35 AM63 °FFog.No wind100%29.99 "Hg1 mi
5:15 AM63 °FFog.No wind100%29.98 "Hg0 mi
4:55 AM63 °FFog.No wind100%29.99 "Hg2 mi
4:35 AM64 °FFog.No wind100%29.99 "Hg2 mi
4:15 AM64 °FFog.No wind100%29.99 "Hg1 mi
3:55 AM64 °FMild.No wind100%29.98 "Hg9 mi
3:35 AM63 °FMild.No wind100%29.98 "Hg9 mi
2:55 AM63 °FFog.No wind100%29.98 "Hg1 mi
2:15 AM63 °FFog.No wind100%29.99 "Hg1 mi
1:55 AM63 °FFog.No wind100%29.99 "Hg1 mi
1:35 AM64 °FMild.No wind100%29.99 "Hg8 mi
Weather by CustomWeather, © 2015

See weather overviewHow to use our weather pages